Regional Weather Roundup
Issued by NWS

Home | Current Version | Previous Version | Text Only | Print | Product List | Glossary On
Versions: 1 2 3 4 5 6 7 8 9 10 11 12 13 14 15 16 17 18 19 20 21 22 23 24 25 26 27 28 29 30 31 32 33 34 35 36 37 38 39 40 41 42 43 44 45 46 47 48 49 50
000
ASUS43 KLMK 222110
RWRKY
KENTUCKY REGIONAL WEATHER ROUNDUP
NATIONAL WEATHER SERVICE LOUISVILLE KY
500 PM EDT WED MAR 22 2017

NOTE "FAIR" INDICATES FEW OR NO CLOUDS BELOW 12,000 FEET
WITH NO SIGNIFICANT WEATHER AND/OR OBSTRUCTIONS TO VISIBILITY.

KYZ001>023-026-027-061>063-070>075-222200-
WESTERN AND SOUTH CENTRAL KENTUCKY

CITY           SKY/WX    TMP DP  RH WIND       PRES   REMARKS
PADUCAH        CLOUDY    56  22  26 NE14      30.32F
HENDERSON      SUNNY     46  19  34 NE10      30.36S
OWENSBORO      SUNNY     53  18  25 NE12      30.36F
HOPKINSVILLE   SUNNY     55  21  26 NE9       30.31S
BOWLING GREEN  SUNNY     55  17  22 NE10G20   30.33F
GLASGOW        SUNNY     51  19  27 NE13      30.33S
$$

KYZ024-025-028>034-038-045-046-053-222200-
NORTH CENTRAL KENTUCKY

CITY           SKY/WX    TMP DP  RH WIND       PRES   REMARKS
LOUISVILLE/SDF SUNNY     50  11  20 E10       30.39F
LOUISVILLE/LOU SUNNY     49  14  24 NE9       30.40F
FORT KNOX      SUNNY     49  14  25 NE12G20   30.35F
$$

KYZ035>037-039>044-047>052-055>060-089>105-222200-
NORTHEAST KENTUCKY

CITY           SKY/WX    TMP DP  RH WIND       PRES   REMARKS
LEXINGTON      SUNNY     47  18  31 NE13G21   30.38F
COVINGTON      SUNNY     42  17  36 E10G24    30.43F
FRANKFORT      SUNNY     48  12  23 NE10G17   30.38F
$$

KYZ054-064>069-076>088-106>120-222200-
SOUTHEAST KENTUCKY

CITY           SKY/WX    TMP DP  RH WIND       PRES   REMARKS
JACKSON        SUNNY     50  20  30 VRB6      30.33F
LONDON         SUNNY     51   9  18 NE14G20   30.31S
SOMERSET       SUNNY     50  19  29 N14G20    30.33S
MIDDLESBORO    SUNNY     56  17  22 NW8       30.27F
MONTICELLO     CLEAR     50  21  32 N17G25    30.33F
$$





USA.gov is the U.S. government's official web portal to all federal, state and local government web resources and services.